Zurück zum Katalog

SL-6 R/B(2)

AktivHEO
NORAD 24764·ROCKET BODY·🇷🇺 Russia

Gestartet Apr 9, 1997 von Plesetsk Cosmodrome

Loading…

Nächste Überflüge (nächste 24 Stunden)

TLE

AktuellSource: Space-Track

Epoche: Sep 14, 2026, 02:01 UTC

1 24764U 97015D   26257.08469158  .00000763  00000-0  00000-0 0  9994
2 24764  66.8644  69.5984 5975859 131.4352 298.0985  2.03155598218333

Verfolge SL-6 R/B(2) in Echtzeit mit AllMySat

Download on the App Store